Tiempo cada hora Bartın

Hoy, 8 Marzo, Lunes

Tiempo Temperatura Precipitaciones Viento Presión Humedad
00:00 +1°C° 0 mm 0 mps 765 mmHg 89%
01:00 +1°C° 0 mm 0 mps 765 mmHg 89%
02:00 +2°C° 0 mm 1 mps 764 mmHg 90%
03:00 +2°C° 0 mm 1 mps 764 mmHg 89%
04:00 +2°C° 0 mm 1 mps 764 mmHg 88%
05:00 +2°C° 0 mm 1 mps 763 mmHg 87%
06:00 +3°C° 0 mm 1 mps 763 mmHg 81%
07:00 +4°C° 0 mm 1 mps 763 mmHg 75%
08:00 +5°C° 0 mm 1 mps 763 mmHg 71%
09:00 +5°C° 0 mm 2 mps 763 mmHg 64%
10:00 +6°C° 0 mm 2 mps 763 mmHg 58%
11:00 +8°C° 0 mm 2 mps 763 mmHg 51%
12:00 +8°C° 0 mm 2 mps 762 mmHg 50%
13:00 +8°C° 0 mm 2 mps 762 mmHg 49%
14:00 +9°C° 0 mm 3 mps 761 mmHg 49%
15:00 +8°C° 0 mm 2 mps 761 mmHg 53%
16:00 +7°C° 0 mm 2 mps 761 mmHg 57%
17:00 +7°C° 0 mm 1 mps 761 mmHg 61%
18:00 +6°C° 0 mm 1 mps 761 mmHg 65%
19:00 +5°C° 0 mm 1 mps 761 mmHg 68%
20:00 +4°C° 0 mm 1 mps 761 mmHg 72%
21:00 +3°C° 0 mm 2 mps 761 mmHg 71%
22:00 +3°C° 0 mm 2 mps 761 mmHg 70%
23:00 +3°C° 0 mm 2 mps 762 mmHg 69%

Mañana, 9 Marzo, Martes

Tiempo Temperatura Precipitaciones Viento Presión Humedad
00:00 +3°C° 0 mm 2 mps 762 mmHg 69%
01:00 +3°C° 0 mm 2 mps 762 mmHg 68%
02:00 +3°C° 0 mm 2 mps 762 mmHg 67%
03:00 +3°C° 0 mm 2 mps 762 mmHg 67%
04:00 +3°C° 0 mm 2 mps 762 mmHg 67%
05:00 +3°C° 0 mm 2 mps 762 mmHg 67%
06:00 +4°C° 0 mm 2 mps 762 mmHg 63%
07:00 +5°C° 0 mm 2 mps 762 mmHg 58%
08:00 +7°C° 0 mm 2 mps 762 mmHg 54%
09:00 +9°C° 0 mm 2 mps 762 mmHg 48%
10:00 +11°C° 0 mm 1 mps 762 mmHg 43%
11:00 +13°C° 0 mm 1 mps 762 mmHg 37%
12:00 +13°C° 0 mm 2 mps 762 mmHg 39%
13:00 +13°C° 0 mm 2 mps 762 mmHg 40%
14:00 +13°C° 0 mm 2 mps 762 mmHg 42%
15:00 +12°C° 0 mm 2 mps 762 mmHg 48%
16:00 +11°C° 0 mm 1 mps 762 mmHg 54%
17:00 +10°C° 0 mm 1 mps 762 mmHg 59%
18:00 +9°C° 0 mm 1 mps 762 mmHg 63%
19:00 +8°C° 0 mm 1 mps 763 mmHg 66%
20:00 +6°C° 0 mm 1 mps 763 mmHg 70%
21:00 +6°C° 0 mm 1 mps 763 mmHg 70%
22:00 +6°C° 0 mm 1 mps 763 mmHg 70%
23:00 +5°C° 0 mm 2 mps 763 mmHg 70%

Pasado mañana, 10 Marzo, Miércoles

Tiempo Temperatura Precipitaciones Viento Presión Humedad
00:00 +5°C° 0 mm 2 mps 763 mmHg 69%
01:00 +4°C° 0 mm 2 mps 763 mmHg 69%
02:00 +3°C° 0 mm 3 mps 763 mmHg 69%
03:00 +3°C° 0 mm 3 mps 763 mmHg 69%
04:00 +3°C° 0 mm 3 mps 763 mmHg 69%
05:00 +3°C° 0 mm 3 mps 763 mmHg 69%
06:00 +4°C° 0 mm 4 mps 762 mmHg 65%
07:00 +5°C° 0 mm 4 mps 762 mmHg 62%
08:00 +6°C° 0 mm 4 mps 762 mmHg 59%
09:00 +8°C° 0 mm 4 mps 761 mmHg 55%
10:00 +11°C° 0 mm 4 mps 761 mmHg 50%
11:00 +13°C° 0 mm 4 mps 760 mmHg 46%
12:00 +13°C° 0 mm 4 mps 760 mmHg 47%
13:00 +14°C° 0 mm 5 mps 759 mmHg 48%
14:00 +14°C° 0 mm 5 mps 759 mmHg 49%
15:00 +13°C° 0 mm 5 mps 758 mmHg 56%
16:00 +12°C° 0 mm 5 mps 758 mmHg 62%
17:00 +10°C° 0 mm 5 mps 758 mmHg 69%
18:00 +9°C° 0 mm 5 mps 758 mmHg 72%
19:00 +8°C° 0 mm 4 mps 758 mmHg 75%
20:00 +7°C° 0 mm 4 mps 758 mmHg 79%
21:00 +8°C° 0 mm 4 mps 758 mmHg 77%
22:00 +8°C° 0 mm 4 mps 758 mmHg 75%
23:00 +9°C° 0 mm 3 mps 758 mmHg 73%

11 Marzo, Jueves

Tiempo Temperatura Precipitaciones Viento Presión Humedad
00:00 +8°C° 0 mm 4 mps 758 mmHg 75%
01:00 +7°C° 0 mm 4 mps 758 mmHg 77%
02:00 +7°C° 0 mm 4 mps 758 mmHg 78%
03:00 +7°C° 0.3 mm 4 mps 758 mmHg 83%
04:00 +7°C° 0.3 mm 4 mps 758 mmHg 88%
05:00 +6°C° 0.3 mm 4 mps 758 mmHg 92%
06:00 +6°C° 0.3 mm 5 mps 758 mmHg 93%
07:00 +6°C° 0.3 mm 5 mps 759 mmHg 94%
08:00 +6°C° 0.3 mm 5 mps 759 mmHg 95%
09:00 +5°C° 0.3 mm 6 mps 759 mmHg 95%
10:00 +5°C° 0.3 mm 6 mps 760 mmHg 94%
11:00 +4°C° 0.3 mm 6 mps 760 mmHg 93%
12:00 +4°C° 0.2 mm 6 mps 760 mmHg 93%
13:00 +4°C° 0.2 mm 6 mps 760 mmHg 92%
14:00 +3°C° 0.2 mm 6 mps 761 mmHg 92%
15:00 +3°C° 0.1 mm 6 mps 761 mmHg 92%
16:00 +3°C° 0.1 mm 6 mps 761 mmHg 91%
17:00 +3°C° 0.1 mm 6 mps 761 mmHg 91%
18:00 +2°C° 0.1 mm 5 mps 762 mmHg 91%
19:00 +2°C° 0.1 mm 5 mps 762 mmHg 92%
20:00 +2°C° 0.1 mm 5 mps 763 mmHg 93%
21:00 +1°C° 0.1 mm 4 mps 763 mmHg 92%
22:00 +1°C° 0.1 mm 4 mps 764 mmHg 91%
23:00 +1°C° 0.1 mm 4 mps 764 mmHg 90%

12 Marzo, Viernes

Tiempo Temperatura Precipitaciones Viento Presión Humedad
00:00 +1°C° 0 mm 4 mps 765 mmHg 89%
01:00 0°C° 0 mm 4 mps 765 mmHg 87%
02:00 0°C° 0 mm 4 mps 765 mmHg 85%
03:00 +1°C° 0 mm 3 mps 766 mmHg 85%
04:00 +1°C° 0 mm 3 mps 766 mmHg 85%
05:00 0°C° 0 mm 3 mps 767 mmHg 84%
06:00 +1°C° 0 mm 3 mps 767 mmHg 80%
07:00 +2°C° 0 mm 3 mps 768 mmHg 76%
08:00 +2°C° 0 mm 3 mps 768 mmHg 71%
09:00 +4°C° 0 mm 3 mps 768 mmHg 65%
10:00 +5°C° 0 mm 3 mps 768 mmHg 59%
11:00 +7°C° 0 mm 3 mps 768 mmHg 53%
12:00 +7°C° 0 mm 3 mps 768 mmHg 53%
13:00 +6°C° 0 mm 4 mps 768 mmHg 54%
14:00 +7°C° 0 mm 4 mps 768 mmHg 54%
15:00 +6°C° 0 mm 4 mps 768 mmHg 58%
16:00 +5°C° 0 mm 4 mps 767 mmHg 63%
17:00 +5°C° 0 mm 4 mps 767 mmHg 67%
18:00 +4°C° 0 mm 4 mps 768 mmHg 71%
19:00 +3°C° 0 mm 3 mps 768 mmHg 75%
20:00 +2°C° 0 mm 3 mps 768 mmHg 79%
21:00 +2°C° 0 mm 3 mps 767 mmHg 77%
22:00 +2°C° 0 mm 3 mps 767 mmHg 75%
23:00 +2°C° 0 mm 3 mps 767 mmHg 74%

13 Marzo, Sábado

Tiempo Temperatura Precipitaciones Viento Presión Humedad
00:00 +2°C° 0 mm 3 mps 767 mmHg 70%
01:00 +3°C° 0 mm 2 mps 766 mmHg 67%
02:00 +3°C° 0 mm 2 mps 766 mmHg 64%
03:00 +3°C° 0 mm 2 mps 766 mmHg 63%
04:00 +3°C° 0 mm 2 mps 766 mmHg 61%
05:00 +3°C° 0 mm 2 mps 765 mmHg 60%
06:00 +4°C° 0 mm 2 mps 765 mmHg 57%
07:00 +5°C° 0 mm 2 mps 765 mmHg 55%
08:00 +7°C° 0 mm 2 mps 765 mmHg 52%
09:00 +9°C° 0 mm 2 mps 765 mmHg 47%
10:00 +12°C° 0 mm 2 mps 765 mmHg 42%
11:00 +14°C° 0 mm 2 mps 765 mmHg 37%
12:00 +14°C° 0 mm 2 mps 764 mmHg 39%
13:00 +15°C° 0 mm 2 mps 764 mmHg 41%
14:00 +14°C° 0 mm 3 mps 763 mmHg 42%
15:00 +13°C° 0 mm 3 mps 763 mmHg 48%
16:00 +12°C° 0 mm 3 mps 763 mmHg 55%
17:00 +11°C° 0 mm 3 mps 762 mmHg 61%
18:00 +10°C° 0 mm 2 mps 762 mmHg 62%
19:00 +9°C° 0 mm 2 mps 762 mmHg 63%
20:00 +8°C° 0 mm 2 mps 763 mmHg 64%
21:00 +9°C° 0 mm 1 mps 762 mmHg 63%
22:00 +9°C° 0 mm 1 mps 762 mmHg 63%
23:00 +8°C° 0 mm 1 mps 762 mmHg 63%
Mostrar más

Necesitamos Su Consentimiento

Meteoprog y nuestros Proveedores de Servicios pueden almacenar y acceder a sus datos personales como cookies, identificadores de dispositivo u otras tecnologías similares de su dispositivo y procesar dichos datos para personalizar contenido y anuncios, además de ofrecer funciones de redes sociales y analizar el tráfico.

  • Almacenar y/o acceder a información en su dispositivo

    Se puede almacenar o acceder a cookies, identificadores de dispositivo u otra información de su dispositivo para los fines anteriormente indicados.

  • Anuncios y contenido personalizados, medición de anuncios y contenido, percepciones del público, y desarrollo de productos

    Los anuncios y el contenido pueden personalizarse en base a su perfil. Se pueden añadir más datos para personalizar mejor los anuncios y contenidos. Se puede medir el rendimiento de los anuncios y contenidos. Se puede obtener la percepción sobre el público que ha visto los anuncios y contenidos. Dichos datos pueden usarse para desarrollar o mejorar la experiencia del usuario, sistemas y software.

Al hacer clic en ‘Estoy De Acuerdo’ usted permitirá el uso de las cookies, identificadores de dispositivo, balizas web u otras tecnologías similares indicadas. Su configuración puede cambiarse desde el navegador de su dispositivo.

Para ciertos fines, los intereses legítimos pueden ser considerados por encima del consentimiento. Puede leer más sobre ello en nuestra Política de Privacidad y Cookies.